This is the latest recevied weather packets stored in our database for station/object CX5ACA-13. If no packets are shown the sender has not sent any weather packets the latest 10 day(s).
| Time | Temp. | Humidity | Pressure | Rain* | Wind** | Luminosity | Snow |
|---|---|---|---|---|---|---|---|
| 1777844255 | 15° C | 62% | 1018.3 hPa | 0 mm | - | 0 W/m² | - |
| 1777843952 | 15.56° C | 61% | 1018.4 hPa | 0 mm | - | 0 W/m² | - |
| 1777843648 | 15.56° C | 61% | 1018.4 hPa | 0 mm | - | 0 W/m² | - |
| 1777843346 | 15.56° C | 60% | 1018.5 hPa | 0 mm | - | 0 W/m² | - |
| 1777843043 | 15.56° C | 60% | 1018.2 hPa | 0 mm | - | 0 W/m² | - |
| 1777842739 | 16.11° C | 59% | 1018.5 hPa | 0 mm | - | 1 W/m² | - |
| 1777842435 | 16.11° C | 58% | 1018.4 hPa | 0 mm | - | 2 W/m² | - |
| 1777842133 | 16.11° C | 57% | 1018.4 hPa | 0 mm | - | 4 W/m² | - |
| 1777841828 | 16.67° C | 56% | 1018.7 hPa | 0 mm | - | 6 W/m² | - |
| 1777841524 | 16.67° C | 55% | 1018.7 hPa | 0 mm | - | 10 W/m² | - |
| 1777841221 | 16.67° C | 55% | 1018.8 hPa | 0 mm | - | 13 W/m² | - |
| 1777840919 | 16.67° C | 53% | 1018.7 hPa | 0 mm | - | 17 W/m² | - |
| 1777840615 | 17.22° C | 52% | 1018.8 hPa | 0 mm | - | 22 W/m² | - |
| 1777840313 | 17.22° C | 51% | 1018.6 hPa | 0 mm | - | 25 W/m² | - |
| 1777840010 | 17.22° C | 50% | 1018.7 hPa | 0 mm | - | 27 W/m² | - |
| 1777839708 | 17.78° C | 48% | 1018.7 hPa | 0 mm | - | 29 W/m² | - |
| 1777839406 | 17.78° C | 47% | 1018.9 hPa | 0 mm | - | 40 W/m² | - |
| 1777839103 | 17.78° C | 46% | 1018.9 hPa | 0 mm | - | 44 W/m² | - |
| 1777838799 | 18.33° C | 46% | 1018.8 hPa | 0 mm | - | 58 W/m² | - |
| 1777838495 | 18.33° C | 46% | 1018.8 hPa | 0 mm | - | 73 W/m² | - |
| 1777838193 | 18.89° C | 44% | 1019.2 hPa | 0 mm | - | 84 W/m² | - |
| 1777837889 | 18.89° C | 45% | 1019.3 hPa | 0 mm | - | 96 W/m² | - |
| 1777837587 | 19.44° C | 44% | 1019.1 hPa | 0 mm | - | 107 W/m² | - |
| 1777837282 | 18.89° C | 44% | 1019.1 hPa | 0 mm | - | 119 W/m² | - |
| 1777836979 | 18.89° C | 45% | 1018.8 hPa | 0 mm | - | 133 W/m² | - |
* Rain latest hour (hover to see other rain measurements)
** Current wind speed in m/s (hover to see current wind gust speed)